This demonstration page uses our WeatherBlox Daily Observations layout. Learn more.

Left ArrowRight Arrow

34.74481, -87.66753

Hourly Observations for December 12, 2019

Temp ( °F °C ) Dew Point ( °F °C ) Humidity (%) Winds ( mph kmh ) Pressure ( in mb ) Visibility ( mi km ) Precip ( " mm )
12:53 am 00:53 Clear 32 0 31 -0.6 96 96 NNE 3 6 30.50 1033 10 16 0.00 0.00
1:53 am 01:53 Clear 31 -0.6 28 -2.2 89 89 Calm 30.50 1033 8 13 0.00 0.00
2:53 am 02:53 Clear 30 -1.1 27 -2.8 88 88 Calm 30.49 1033 10 16 0.00 0.00
3:53 am 03:53 Clear 29 -1.7 28 -2.2 96 96 Calm 30.48 1032 10 16 0.00 0.00
4:53 am 04:53 Clear 29 -1.7 29 -1.7 100 100 E 3 6 30.47 1032 10 16 0.00 0.00
5:53 am 05:53 Clear 29 -1.7 27 -2.8 92 92 Calm 30.48 1032 10 16 0.00 0.00
6:53 am 06:53 Sunny 28 -2.2 27 -2.8 96 96 Calm 30.48 1032 10 16 0.00 0.00
7:53 am 07:53 Sunny 32 0 30 -1.1 92 92 Calm 30.48 1032 10 16 0.00 0.00
8:53 am 08:53 Sunny 40 4.4 32 0 73 73 ESE 8 13 30.47 1032 10 16 0.00 0.00
9:53 am 09:53 Sunny 44 6.7 31 -0.6 60 60 ESE 9 15 30.46 1031 10 16 0.00 0.00
10:53 am 10:53 Sunny 49 9.4 31 -0.6 50 50 ESE 9 15 30.42 1030 10 16 0.00 0.00
11:53 am 11:53 Sunny 53 11.7 28 -2.2 38 38 SE 15 24 30.37 1029 10 16 0.00 0.00
12:53 pm 12:53 Sunny 55 12.8 29 -1.7 37 37 SE 12 19 30.32 1027 10 16 0.00 0.00
1:53 pm 13:53 Sunny 56 13.3 29 -1.7 36 36 SSE 14 22 30.29 1026 10 16 0.00 0.00
2:53 pm 14:53 Mostly Cloudy 56 13.3 29 -1.7 36 36 SSE 7 11 30.28 1025 10 16 0.00 0.00
3:53 pm 15:53 Cloudy 55 12.8 30 -1.1 38 38 SSE 13 20 30.27 1025 10 16 0.00 0.00
4:53 pm 16:53 Cloudy 53 11.7 32 0 45 45 SSE 9 15 30.25 1025 10 16 0.00 0.00
5:53 pm 17:53 Cloudy 52 11.1 32 0 47 47 SE 8 13 30.23 1024 10 16 0.00 0.00
6:53 pm 18:53 Cloudy 52 11.1 33 0.6 49 49 SSE 8 13 30.23 1024 10 16 0.00 0.00
7:33 pm 19:33 Cloudy 52 11.1 33 0.6 49 49 SSE 10 17 30.24 1024 10 16 0.00 0.00
7:53 pm 19:53 Cloudy 52 11.1 33 0.6 49 49 SSE 13 20 30.23 1024 10 16 0.00 0.00
8:53 pm 20:53 Cloudy 51 10.6 33 0.6 50 50 SSE 12 19 30.21 1023 10 16 0.00 0.00
9:53 pm 21:53 Cloudy 50 10 33 0.6 52 52 SSE 13 20 30.20 1023 10 16 0.00 0.00
10:09 pm 22:09 Cloudy 50 10 32 0 50 50 SSE 16 26 30.21 1023 10 16 0.00 0.00
10:53 pm 22:53 Cloudy 49 9.4 33 0.6 55 55 S 10 17 30.20 1023 10 16 0.00 0.00
11:53 pm 23:53 Cloudy 49 9.4 33 0.6 55 55 SSE 12 19 30.18 1022 10 16 0.00 0.00

Powered by AerisWeather